EW7794 Weather Reports


time (UTC)temp
F
wind
direction
speed
knots
gust
knots
rain 1hr
in
rain 24hr
in
rain mn
in
humidity
%
barometer
mb
20260504045020 51 225 1.7 6.1 0.00 0.00 0.00 60 1008.3
20260504044019 51 203 1.7 4.3 0.00 0.00 0.00 60 1008.3
20260504043038 51 203 0.9 4.3 0.00 0.00 0.00 59 1008.4
20260504042020 52 203 1.7 7.8 0.00 0.00 0.00 58 1008.3
20260504041020 52 225 2.6 6.1 0.00 0.00 0.00 57 1008.4
20260504040020 52 248 1.7 6.1 0.00 0.00 0.00 57 1008.4
20260504035019 53 225 3.5 10.4 0.00 0.00 0.00 56 1008.4
20260504034019 53 225 3.5 9.6 0.00 0.00 0.00 57 1008.3
20260504033020 53 225 2.6 6.1 0.00 0.00 0.00 56 1008.3
20260504032020 53 180 3.5 13.0 0.00 0.00 0.00 56 1008.4
20260504031019 53 225 2.6 6.1 0.00 0.00 0.00 56 1008.4
20260504030040 53 248 1.7 6.1 0.00 0.00 0.00 55 1008.3
20260504025020 54 248 2.6 7.0 0.00 0.00 0.00 54 1008.4
20260504024019 54 225 3.5 7.8 0.00 0.00 0.00 54 1008.5
20260504023039 54 270 4.3 9.6 0.00 0.00 0.00 54 1008.4
20260504022019 54 270 6.1 12.2 0.00 0.00 0.00 54 1008.5
20260504021020 54 248 3.5 9.6 0.00 0.00 0.00 55 1008.6
20260504020019 54 203 2.6 7.0 0.00 0.00 0.00 53 1008.7
20260504015019 54 225 2.6 6.1 0.00 0.00 0.00 53 1008.7
20260504014019 55 248 4.3 10.4 0.00 0.00 0.00 52 1008.9
20260504013019 54 248 4.3 8.7 0.00 0.00 0.00 52 1008.8
20260504012019 55 270 6.1 14.8 0.00 0.00 0.00 52 1008.8
20260504011019 55 248 6.1 14.8 0.00 0.00 0.00 51 1008.7
20260504010019 55 270 5.2 13.9 0.00 0.00 0.00 53 1008.5
20260504005019 55 248 7.0 13.9 0.00 0.00 0.00 53 1008.4
20260504004019 54 248 7.8 16.5 0.00 0.00 0.00 53 1008.8
20260504003019 54 270 6.1 13.9 0.00 0.00 0.00 55 1008.8
20260504002019 54 270 10.4 22.6 0.00 0.00 0.00 55 1008.8
20260504001019 54 270 7.0 14.8 0.00 0.00 0.00 55 1009.0
20260504000019 54 270 10.4 16.5 0.00 0.00 0.00 53 1008.8
20260503235019 54 270 8.7 13.0 0.00 0.00 0.00 51 1008.8
20260503234119 54 270 7.0 11.3 0.00 0.00 0.00 52 1008.6
20260503233019 54 270 8.7 16.5 0.00 0.00 0.00 51 1008.5
20260503232019 54 270 8.7 15.6 0.00 0.00 0.00 52 1008.5
20260503231019 54 270 10.4 21.7 0.00 0.00 0.00 52 1008.6
20260503230039 55 270 8.7 14.8 0.00 0.00 0.00 50 1008.6
20260503225019 55 270 9.6 16.5 0.00 0.00 0.00 52 1008.6
20260503224019 55 270 11.3 22.6 0.00 0.00 0.00 52 1008.6
20260503223039 55 270 7.0 13.0 0.00 0.00 0.00 52 1008.5
20260503222019 56 270 9.6 24.3 0.00 0.00 0.00 49 1008.5
20260503221019 56 270 12.2 22.6 0.00 0.00 0.00 46 1008.2
20260503220019 57 270 7.8 13.0 0.00 0.00 0.00 47 1008.1
20260503215019 56 270 8.7 25.2 0.00 0.00 0.00 46 1008.2
20260503214019 56 270 8.7 14.8 0.00 0.00 0.00 47 1008.2
20260503213019 57 270 10.4 15.6 0.00 0.00 0.00 46 1008.2
20260503212018 57 270 8.7 24.3 0.00 0.00 0.00 46 1008.1
20260503211038 57 270 8.7 16.5 0.00 0.00 0.00 46 1008.1
20260503210019 57 270 10.4 20.0 0.00 0.00 0.00 45 1008.2
20260503205019 57 270 9.6 14.8 0.00 0.00 0.00 46 1008.2
20260503204039 58 270 6.1 11.3 0.00 0.00 0.00 46 1008.3
20260503203059 57 270 7.8 15.6 0.00 0.00 0.00 47 1008.6
20260503202018 57 270 9.6 21.7 0.00 0.00 0.00 45 1008.6
20260503201038 57 270 9.6 22.6 0.00 0.00 0.00 47 1008.8
20260503200019 56 270 9.6 15.6 0.00 0.00 0.00 46 1008.8
20260503195018 57 270 10.4 17.4 0.00 0.00 0.00 44 1009.0
20260503194018 56 270 7.8 15.6 0.00 0.00 0.00 47 1009.1
20260503193018 55 270 7.8 13.0 0.00 0.00 0.00 47 1009.3
20260503192018 55 270 6.1 13.0 0.00 0.00 0.00 47 1009.5
20260503191018 54 270 7.0 18.2 0.00 0.00 0.00 44 1009.6
20260503190020 54 270 8.7 13.9 0.00 0.00 0.00 45 1009.7
20260503185040 54 270 8.7 15.6 0.00 0.00 0.00 43 1009.9
20260503184018 54 270 7.8 16.5 0.00 0.00 0.00 46 1010.1
20260503183020 54 270 9.6 18.2 0.00 0.00 0.00 47 1010.2
20260503182018 54 270 7.0 13.0 0.00 0.00 0.00 49 1010.5
20260503181040 54 248 4.3 11.3 0.00 0.00 0.00 50 1010.7
20260503180018 52 270 4.3 9.6 0.00 0.00 0.00 49 1010.8
20260503175018 51 270 9.6 15.6 0.00 0.00 0.00 47 1011.0
20260503174018 53 270 7.8 13.9 0.00 0.00 0.00 46 1011.1
20260503173138 53 270 8.7 14.8 0.00 0.00 0.00 46 1011.1
20260503172518 52 270 7.8 14.8 0.00 0.00 0.00 46 1011.1
20260503171519 51 270 9.6 14.8 0.00 0.00 0.00 46 1011.2
20260503170524 52 270 8.7 16.5 0.00 0.00 0.00 46 1011.2
20260503150520 49 270 6.1 12.2 0.00 0.00 0.00 60 1012.2
20260503130519 44 270 5.2 10.4 0.00 0.00 0.00 69 1013.0
20260503110519 35 248 2.6 6.1 0.00 0.00 0.00 77 1012.9
20260503081519 36 270 1.7 5.2 0.00 0.00 0.00 83 1012.6
20260503080519 36 270 2.6 5.2 0.00 0.00 0.00 83 1012.6
20260503072519 37 270 3.5 6.1 0.00 0.00 0.00 82 1012.7
20260503071519 37 270 3.5 7.0 0.00 0.00 0.00 82 1012.7
20260503070519 37 270 3.5 6.1 0.00 0.00 0.00 82 1012.6
20260503054519 38 248 0.9 2.6 0.00 0.00 0.00 79 1013.1
20260503053519 38 293 0.9 3.5 0.00 0.00 0.00 78 1013.1
20260503052518 38 248 1.7 3.5 0.00 0.00 0.00 77 1013.2
20260503051518 39 248 0.9 3.5 0.00 0.00 0.00 77 1013.3
20260503050538 39 270 0.9 2.6 0.00 0.00 0.00 77 1013.4